Location: Alpha Ridge Park
(39.3209°N, 76.9128°W)
Time: 22:15:10
(UTC-04:00)

Vanguard 2 Rocket - Pass Details

Date: 24 May 2019
Orbit: 555 x 3326 km, 32.9° (Epoch: 25 June)

Event Time Altitude Azimuth Distance (km) Brightness Sun altitude
Rises 13:26:47 0° 272° (W) 4,638 10.6 70.9°
Reaches altitude 10° 13:33:23 10° 239° (WSW) 2,895 9.9 70.5°
Maximum altitude 13:34:48 11° 226° (SW) 2,685 9.8 70.4°
Drops below altitude 10° 13:36:08 10° 214° (SSW) 2,593 9.7 70.3°
Sets 13:40:36 0° 174° (S) 3,086 9.9 69.9°
